EW1914 Weather Reports


time (UTC)temp
C
wind
direction
speed
KPH
gust
KPH
rain 1hr
cm
rain 24hr
cm
rain mn
cm
humidity
%
barometer
mb
20260503054959 17 0.0 0.0 0.00 0.00 0.00 80 1011.5
20260503053959 17 0.0 0.0 0.00 0.00 0.00 79 1011.4
20260503053004 17 0.0 0.0 0.00 0.00 0.00 78 1011.6
20260503052000 17 0.0 0.0 0.00 0.00 0.00 78 1011.5
20260503051000 17 0.0 0.0 0.00 0.00 0.00 77 1011.6
20260503044959 18 0.0 0.0 0.00 0.00 0.00 76 1012.0
20260503043000 18 0.0 0.0 0.00 0.00 0.00 75 1011.7
20260503041959 18 0.0 0.0 0.00 0.00 0.00 74 1011.7
20260503040959 18 0.0 0.0 0.00 0.00 0.00 73 1011.7
20260503040000 18 0.0 0.0 0.00 0.00 0.00 73 1011.7
20260503034958 19 0.0 0.0 0.00 0.00 0.00 72 1011.6
20260503033959 19 0.0 0.0 0.00 0.00 0.00 71 1011.4
20260503032959 19 0.0 0.0 0.00 0.00 0.00 71 1011.4
20260503031959 20 0.0 0.0 0.00 0.00 0.00 71 1011.2
20260503030959 20 0.0 0.0 0.00 0.00 0.00 70 1011.2
20260503030000 20 0.0 0.0 0.00 0.00 0.00 69 1011.3
20260503024958 20 0.0 0.0 0.00 0.00 0.00 68 1011.2
20260503023958 20 0.0 0.0 0.00 0.00 0.00 67 1011.2
20260503022959 21 0.0 0.0 0.00 0.00 0.00 65 1011.2
20260503021958 22 0.0 0.0 0.00 0.00 0.00 64 1011.0
20260503020959 22 0.0 0.0 0.00 0.00 0.00 62 1011.1
20260503014004 22 0.0 0.0 0.00 0.00 0.00 59 1010.2
20260503013000 23 0.0 0.0 0.00 0.00 0.00 59 1010.3
20260503010958 23 0.0 0.0 0.00 0.00 0.00 59 1010.2
20260503004958 23 0.0 0.0 0.00 0.00 0.00 59 1010.2
20260503003958 23 0.0 0.0 0.00 0.00 0.00 59 1010.3
20260503003000 22 0.0 0.0 0.00 0.00 0.00 59 1010.3
20260503000000 22 0.0 0.0 0.00 0.00 0.00 60 1010.5
20260502234957 22 0.0 0.0 0.00 0.00 0.00 60 1010.5
20260502231957 22 0.0 0.0 0.00 0.00 0.00 62 1011.0
20260502230957 22 0.0 0.0 0.00 0.00 0.00 60 1011.1
20260502230002 22 0.0 0.0 0.00 0.00 0.00 61 1011.3
20260502224959 21 0.0 0.0 0.00 0.00 0.00 62 1011.5
20260502223000 21 0.0 0.0 0.00 0.00 0.00 61 1011.8
20260502221959 21 0.0 0.0 0.00 0.00 0.00 62 1011.9
20260502220958 21 0.0 0.0 0.00 0.00 0.00 64 1012.2
20260502220003 20 0.0 0.0 0.00 0.00 0.00 65 1012.3
20260502214959 20 0.0 0.0 0.00 0.00 0.00 65 1012.5
20260502213958 20 0.0 0.0 0.00 0.00 0.00 66 1012.6
20260502213004 19 0.0 0.0 0.00 0.00 0.00 68 1012.7
20260502212000 18 0.0 0.0 0.00 0.00 0.00 69 1013.0
20260502210959 18 0.0 0.0 0.00 0.00 0.00 68 1013.0
20260502205958 17 0.0 0.0 0.00 0.00 0.00 73 1013.3
20260502204958 17 0.0 0.0 0.00 0.00 0.00 70 1013.5
20260502203957 17 0.0 0.0 0.00 0.00 0.00 70 1013.7
20260502203000 17 0.0 0.0 0.00 0.00 0.00 73 1013.7
20260502201957 17 0.0 0.0 0.00 0.00 0.00 73 1013.9
20260502200957 17 0.0 0.0 0.00 0.00 0.00 75 1013.9
20260502200001 16 0.0 0.0 0.00 0.00 0.00 75 1014.0
20260502193957 16 0.0 0.0 0.00 0.00 0.00 74 1014.2
20260502192959 16 0.0 0.0 0.00 0.00 0.00 75 1014.5
20260502191958 15 0.0 0.0 0.00 0.00 0.00 76 1014.7
20260502191000 15 0.0 0.0 0.00 0.00 0.00 75 1014.8
20260502190001 15 0.0 0.0 0.00 0.00 0.00 77 1014.8
20260502184958 15 0.0 0.0 0.00 0.00 0.00 79 1014.8
20260502183959 14 0.0 0.0 0.00 0.00 0.00 81 1014.8
20260502181958 13 0.0 0.0 0.00 0.00 0.00 81 1015.0
20260502180957 13 0.0 0.0 0.00 0.00 0.00 82 1015.1
20260502163958 12 0.0 0.0 0.00 0.00 0.00 85 1015.5
20260502162958 12 0.0 0.0 0.00 0.00 0.00 85 1015.5
20260502161956 12 0.0 0.0 0.00 0.00 0.00 85 1015.6
20260502160957 12 0.0 0.0 0.00 0.00 0.00 85 1015.5
20260502151956 12 0.0 0.0 0.00 0.00 0.00 86 1015.6
20260502150958 11 0.0 0.0 0.00 0.00 0.00 86 1015.7
20260502123002 11 0.0 0.0 0.00 0.00 0.00 86 1015.4
20260502121957 11 0.0 0.0 0.00 0.00 0.00 86 1015.0
20260502114958 11 0.0 0.0 0.00 0.00 0.00 87 1015.2
20260502113959 11 0.0 0.0 0.00 0.00 0.00 88 1015.4
20260502111959 11 0.0 0.0 0.00 0.00 0.00 88 1015.1
20260502110958 11 0.0 0.0 0.00 0.00 0.00 88 1015.1
20260502110005 11 0.0 0.0 0.00 0.00 0.00 89 1015.3
20260502104956 11 0.0 0.0 0.00 0.00 0.00 88 1015.5
20260502102959 11 0.0 0.0 0.00 0.00 0.00 88 1015.3
20260502101956 11 0.0 0.0 0.00 0.00 0.00 87 1015.2
20260502100957 11 0.0 0.0 0.00 0.00 0.00 87 1015.0
20260502070959 13 0.0 0.0 0.00 0.00 0.00 78 1016.1
20260502070006 13 0.0 0.0 0.00 0.00 0.00 78 1016.1
20260502065000 13 0.0 0.0 0.00 0.00 0.00 77 1016.2